This is the latest recevied weather packets stored in our database for station/object OE3BCB-14. If no packets are shown the sender has not sent any weather packets the latest 10 day(s).
| Time | Temp. | Humidity | Pressure | Rain* | Wind** | Luminosity | Snow |
|---|---|---|---|---|---|---|---|
| 1778019927 | 20° C | 40% | 1007.8 hPa | - | - | 0 W/m² | - |
| 1778019625 | 20° C | 40% | 1007.8 hPa | - | - | 0 W/m² | - |
| 1778019323 | 20.56° C | 40% | 1007.8 hPa | - | - | 0 W/m² | - |
| 1778019020 | 20.56° C | 40% | 1007.8 hPa | - | - | 0 W/m² | - |
| 1778018718 | 20.56° C | 39% | 1007.7 hPa | - | - | 0 W/m² | - |
| 1778018415 | 20.56° C | 39% | 1007.6 hPa | - | - | 0 W/m² | - |
| 1778018113 | 21.11° C | 39% | 1007.6 hPa | - | - | 0 W/m² | - |
| 1778017811 | 21.11° C | 39% | 1007.6 hPa | - | - | 0 W/m² | - |
| 1778017508 | 21.11° C | 39% | 1007.7 hPa | - | - | 0 W/m² | - |
| 1778017206 | 21.11° C | 38% | 1007.7 hPa | - | - | 0 W/m² | - |
| 1778016903 | 21.11° C | 38% | 1007.6 hPa | - | - | 0 W/m² | - |
| 1778016601 | 21.11° C | 38% | 1007.5 hPa | - | - | 0 W/m² | - |
| 1778016299 | 21.11° C | 38% | 1007.4 hPa | - | - | 0 W/m² | - |
| 1778015996 | 21.67° C | 37% | 1007.4 hPa | - | - | 0 W/m² | - |
| 1778015694 | 21.67° C | 37% | 1007.3 hPa | - | - | 0 W/m² | - |
| 1778015391 | 21.67° C | 37% | 1007.1 hPa | - | - | 0 W/m² | - |
| 1778015089 | 21.67° C | 37% | 1007.2 hPa | - | - | 0 W/m² | - |
| 1778014787 | 21.67° C | 36% | 1007.1 hPa | - | - | 0 W/m² | - |
| 1778014484 | 21.67° C | 36% | 1007 hPa | - | - | 0 W/m² | - |
| 1778014182 | 21.67° C | 36% | 1007 hPa | - | - | 0 W/m² | - |
| 1778013879 | 21.11° C | 36% | 1007 hPa | - | - | 0 W/m² | - |
| 1778013275 | 20.56° C | 36% | 1006.8 hPa | - | - | 0 W/m² | - |
| 1778012972 | 20° C | 36% | 1006.8 hPa | - | - | 0 W/m² | - |
| 1778012670 | 19.44° C | 35% | 1006.7 hPa | - | - | 0 W/m² | - |
| 1778012367 | 19.44° C | 35% | 1006.5 hPa | - | - | 0 W/m² | - |
* Rain since midnight (hover to see other rain measurements)
** Current wind speed in m/s (hover to see current wind gust speed)